Gwinner, ND

2:51 AM CDT on July 23, 2017 (GMT -0500)
Gwinner-melroe

Weather History for KGWR - September, 2013

Change the Weather History Date:

Friday, September 20, 2013

  Actual Average (KP67) Record (KP67)
Temperature  
Mean Temperature 54 °F -  
Max Temperature 64 °F 68 °F 60 °F (1997)
Min Temperature 44 °F 44 °F 37 °F (1997)
Degree Days  
Heating Degree Days 11    
Growing Degree Days 4 (Base 50)    
Moisture  
Dew Point 45 °F    
Average Humidity 74    
Maximum Humidity 100    
Minimum Humidity 40    
Precipitation  
Precipitation 0.00 in - - ()
Sea Level Pressure  
Sea Level Pressure 29.97 in    
Wind  
Wind Speed 13 mph (NW)    
Max Wind Speed 21 mph    
Max Gust Speed 26 mph    
Visibility 10 miles    
Events      
Averages and records for this station are not official NWS values.
T = Trace of Precipitation, MM = Missing Value Source: NWS Daily Summary

Daily Weather History Graph

Daily Weather History Graph

Search for Another Location

Airport or City:

Trip Planner

Search our weather history database for the weather conditions in past years. The results will help you decide how hot, cold, wet, or windy it might be!

Date:

Astronomy

Sep. 20, 2013 Rise Set
Actual Time 7:15 AM CDT 7:31 PM CDT
Civil Twilight 6:45 AM CDT 8:01 PM CDT
Nautical Twilight 6:09 AM CDT 8:36 PM CDT
Astronomical Twilight 5:33 AM CDT 9:13 PM CDT
Moon 7:57 PM CDT (9/20) 8:38 AM CDT (9/20)
Length of Visible Light 13h 16m
Length of Day
12h 16m
Full, 98% of the Moon is Illuminated
Sep 20
Full
Sep 26
Last Quarter
Oct 4
New
Oct 11
First Quarter
Oct 18
Full

Hourly Weather History & Observations

Time (CDT) Temp. Windchill Dew Point Humidity Pressure Visibility Wind Dir Wind Speed Gust Speed Precip Events Conditions
12:15 AM 55.4 °F - 55.4 °F 100% 29.92 in 3.0 mi WNW 15.0 mph - 0.00 in   Overcast
12:35 AM 55.4 °F - 55.4 °F 100% 29.92 in 7.0 mi WNW 13.8 mph 20.7 mph 0.00 in   Overcast
12:55 AM 55.4 °F - 55.4 °F 100% 29.92 in 10.0 mi NW 13.8 mph 20.7 mph 0.00 in   Overcast
1:15 AM 55.4 °F - 55.4 °F 100% 29.92 in 10.0 mi WNW 16.1 mph 21.9 mph 0.00 in   Overcast
1:35 AM 55.4 °F - 55.4 °F 100% 29.93 in 10.0 mi WNW 15.0 mph 18.4 mph 0.00 in   Overcast
1:55 AM 53.6 °F - 53.6 °F 100% 29.93 in 10.0 mi NW 16.1 mph 21.9 mph 0.00 in   Overcast
2:15 AM 53.6 °F - 53.6 °F 100% 29.94 in 10.0 mi NW 18.4 mph 23.0 mph 0.00 in   Overcast
2:35 AM 53.6 °F - 53.6 °F 100% 29.94 in 10.0 mi NW 18.4 mph 24.2 mph 0.00 in   Overcast
2:55 AM 53.6 °F - 51.8 °F 94% 29.94 in 10.0 mi NW 18.4 mph 24.2 mph 0.00 in   Overcast
3:15 AM 51.8 °F - 51.8 °F 100% 29.94 in 10.0 mi NW 16.1 mph 25.3 mph 0.00 in   Overcast
3:35 AM 51.8 °F - 50.0 °F 94% 29.94 in 10.0 mi NW 18.4 mph 24.2 mph 0.00 in   Overcast
3:55 AM 51.8 °F - 50.0 °F 94% 29.95 in 10.0 mi NW 16.1 mph 23.0 mph 0.00 in   Overcast
4:15 AM 51.8 °F - 48.2 °F 88% 29.94 in 10.0 mi NW 15.0 mph 24.2 mph 0.00 in   Overcast
4:35 AM 51.8 °F - 48.2 °F 88% 29.95 in 10.0 mi WNW 13.8 mph 19.6 mph 0.00 in   Overcast
4:55 AM 50.0 °F - 48.2 °F 94% 29.95 in 10.0 mi NW 12.7 mph 18.4 mph 0.00 in   Mostly Cloudy
5:15 AM 50.0 °F - 48.2 °F 94% 29.95 in 10.0 mi NW 11.5 mph - 0.00 in   Partly Cloudy
5:35 AM 50.0 °F - 46.4 °F 87% 29.95 in 10.0 mi NW 10.4 mph 18.4 mph 0.00 in   Mostly Cloudy
5:55 AM 50.0 °F - 46.4 °F 87% 29.96 in 10.0 mi NW 10.4 mph - 0.00 in   Overcast
6:15 AM 50.0 °F - 46.4 °F 87% 29.96 in 10.0 mi NW 11.5 mph 19.6 mph 0.00 in   Overcast
6:35 AM 50.0 °F - 46.4 °F 87% 29.96 in 10.0 mi NW 9.2 mph - 0.00 in   Overcast
6:55 AM 50.0 °F - 46.4 °F 87% 29.97 in 10.0 mi NW 11.5 mph - 0.00 in   Mostly Cloudy
7:15 AM 51.8 °F - 46.4 °F 82% 29.97 in 10.0 mi NW 10.4 mph - 0.00 in   Overcast
7:35 AM 51.8 °F - 46.4 °F 82% 29.98 in 10.0 mi NW 11.5 mph - 0.00 in   Overcast
7:55 AM 51.8 °F - 46.4 °F 82% 29.99 in 10.0 mi WNW 11.5 mph - 0.00 in   Overcast
8:15 AM 51.8 °F - 46.4 °F 82% 29.98 in 10.0 mi WNW 10.4 mph 16.1 mph 0.00 in   Overcast
8:35 AM 51.8 °F - 46.4 °F 82% 29.98 in 10.0 mi NW 11.5 mph - 0.00 in   Overcast
8:55 AM 51.8 °F - 46.4 °F 82% 29.99 in 10.0 mi WNW 15.0 mph 19.6 mph 0.00 in   Mostly Cloudy
9:15 AM 51.8 °F - 46.4 °F 82% 29.99 in 10.0 mi NW 12.7 mph 17.3 mph 0.00 in   Overcast
9:35 AM 51.8 °F - 46.4 °F 82% 30.00 in 10.0 mi NW 13.8 mph 17.3 mph 0.00 in   Overcast
9:55 AM 53.6 °F - 46.4 °F 77% 30.00 in 10.0 mi NW 12.7 mph - 0.00 in   Overcast
10:15 AM 53.6 °F - 46.4 °F 77% 30.00 in 10.0 mi NW 10.4 mph 16.1 mph 0.00 in   Overcast
10:35 AM 53.6 °F - 44.6 °F 72% 30.00 in 10.0 mi NW 13.8 mph 18.4 mph 0.00 in   Overcast
10:55 AM 55.4 °F - 44.6 °F 67% 30.00 in 10.0 mi WNW 13.8 mph - 0.00 in   Overcast
11:15 AM 55.4 °F - 44.6 °F 67% 30.00 in 10.0 mi WNW 15.0 mph 19.6 mph 0.00 in   Overcast
11:35 AM 55.4 °F - 42.8 °F 63% 30.00 in 10.0 mi WNW 13.8 mph 23.0 mph 0.00 in   Overcast
11:55 AM 57.2 °F - 42.8 °F 59% 30.00 in 10.0 mi WNW 15.0 mph 20.7 mph 0.00 in   Mostly Cloudy
12:15 PM 59.0 °F - 42.8 °F 55% 29.99 in 10.0 mi NNW 18.4 mph 25.3 mph 0.00 in   Partly Cloudy
12:35 PM 60.8 °F - 41.0 °F 48% 29.99 in 10.0 mi NNW 20.7 mph 24.2 mph 0.00 in   Partly Cloudy
12:55 PM 60.8 °F - 41.0 °F 48% 29.99 in 10.0 mi NW 19.6 mph 25.3 mph 0.00 in   Partly Cloudy
1:15 PM 60.8 °F - 39.2 °F 45% 29.98 in 10.0 mi NW 15.0 mph 23.0 mph 0.00 in   Scattered Clouds
1:35 PM 62.6 °F - 41.0 °F 45% 29.98 in 9.0 mi NW 20.7 mph 24.2 mph 0.00 in   Mostly Cloudy
1:55 PM 60.8 °F - 41.0 °F 48% 29.98 in 9.0 mi WNW 17.3 mph 23.0 mph 0.00 in   Scattered Clouds
2:15 PM 62.6 °F - 41.0 °F 45% 29.97 in 10.0 mi NW 17.3 mph 23.0 mph 0.00 in   Mostly Cloudy
2:35 PM 62.6 °F - 39.2 °F 42% 29.97 in 10.0 mi NW 17.3 mph 23.0 mph 0.00 in   Scattered Clouds
2:55 PM 62.6 °F - 39.2 °F 42% 29.97 in 10.0 mi NW 19.6 mph 26.5 mph 0.00 in   Mostly Cloudy
3:15 PM 62.6 °F - 39.2 °F 42% 29.97 in 9.0 mi NW 12.7 mph 23.0 mph 0.00 in   Mostly Cloudy
3:35 PM 62.6 °F - 41.0 °F 45% 29.97 in 10.0 mi NW 15.0 mph 20.7 mph 0.00 in   Scattered Clouds
3:55 PM 62.6 °F - 39.2 °F 42% 29.97 in 9.0 mi NNW 18.4 mph - 0.00 in   Partly Cloudy
4:15 PM 62.6 °F - 41.0 °F 45% 29.97 in 10.0 mi NW 13.8 mph 19.6 mph 0.00 in   Mostly Cloudy
4:35 PM 60.8 °F - 39.2 °F 45% 29.97 in 10.0 mi NW 12.7 mph 21.9 mph 0.00 in   Partly Cloudy
4:55 PM 64.4 °F - 39.2 °F 40% 29.96 in 10.0 mi North 13.8 mph 19.6 mph 0.00 in   Clear
5:15 PM 64.4 °F - 39.2 °F 40% 29.96 in 10.0 mi WNW 13.8 mph 18.4 mph 0.00 in   Clear
5:35 PM 62.6 °F - 39.2 °F 42% 29.96 in 10.0 mi NNW 12.7 mph - 0.00 in   Scattered Clouds
5:55 PM 62.6 °F - 39.2 °F 42% 29.96 in 10.0 mi NNW 9.2 mph 17.3 mph 0.00 in   Partly Cloudy
6:15 PM 62.6 °F - 41.0 °F 45% 29.96 in 10.0 mi NNW 9.2 mph - 0.00 in   Clear
6:35 PM 60.8 °F - 42.8 °F 52% 29.96 in 10.0 mi North 4.6 mph - 0.00 in   Clear
6:55 PM 57.2 °F - 42.8 °F 59% 29.95 in 10.0 mi NNW 5.8 mph - 0.00 in   Clear
7:15 PM 57.2 °F - 42.8 °F 59% 29.95 in 10.0 mi North 5.8 mph - 0.00 in   Clear
7:35 PM 55.4 °F - 44.6 °F 67% 29.96 in 10.0 mi North 4.6 mph - 0.00 in   Clear
7:55 PM 53.6 °F - 44.6 °F 72% 29.96 in 10.0 mi North 3.5 mph - 0.00 in   Clear
8:15 PM 51.8 °F - 44.6 °F 76% 29.97 in 10.0 mi North 4.6 mph - 0.00 in   Clear
8:35 PM 51.8 °F - 44.6 °F 76% 29.98 in 10.0 mi North 4.6 mph - 0.00 in   Clear
8:55 PM 50.0 °F - 44.6 °F 82% 29.98 in 10.0 mi North 4.6 mph - 0.00 in   Clear
9:15 PM 48.2 °F - 44.6 °F 87% 29.98 in 10.0 mi North 5.8 mph - 0.00 in   Clear
9:35 PM 48.2 °F - 44.6 °F 87% 29.98 in 10.0 mi NNE 5.8 mph - 0.00 in   Clear
9:55 PM 48.2 °F - 44.6 °F 87% 29.99 in 10.0 mi North 4.6 mph - 0.00 in   Clear
10:15 PM 46.4 °F 45.2 °F 44.6 °F 93% 29.99 in 10.0 mi North 3.5 mph - 0.00 in   Clear
10:35 PM 46.4 °F 45.2 °F 44.6 °F 93% 29.99 in 10.0 mi North 3.5 mph - 0.00 in   Clear
10:55 PM 46.4 °F - 42.8 °F 87% 30.00 in 10.0 mi Calm Calm - 0.00 in   Clear
11:15 PM 46.4 °F - 42.8 °F 87% 30.00 in 10.0 mi Calm Calm - 0.00 in   Clear
11:35 PM 44.6 °F - 42.8 °F 93% 30.01 in 10.0 mi Calm Calm - 0.00 in   Clear
11:55 PM 44.6 °F - 42.8 °F 93% 30.01 in 10.0 mi Calm Calm - 0.00 in   Clear